Tracking 28790 objects as of 19-Apr-2024
HD Live streaming from Space Station
objects crossing your sky now

GLOBALSTAR M019

Track GLOBALSTAR M019 now!
10-day predictions
GLOBALSTAR M019 is classified as:


NORAD ID: 25677
Int'l Code: 1999-019B
Perigee: 1,625.4 km
Apogee: 1,627.7 km
Inclination: 52.0 °
Period: 118.6 minutes
Semi major axis: 7997 km
RCS: 2.526 m2 (large)
Launch date: April 15, 1999
Source: Globalstar (GLOB)
Launch site: TYURATAM MISSILE AND SPACE COMPLEX (TTMTR)
Your satellite tracking list
Your tracking list is empty




NASA's NSSDC Master Catalog

Two Line Element Set (TLE):
1 25677U 99019B   24110.19152156 -.00000169  00000-0 -82722-3 0  9995
2 25677  51.9856 174.2557 0001412 173.6131 220.5634 12.13854318133841
Source of the keplerian elements: AFSPC